date,time,SUV Intensity [MED/Hr],UV Index,Daily total [MED],Since Last [MED]
29/05/2023,00:02:20,0.000,0.0,0.0,0.0
29/05/2023,00:03:19,0.000,0.0,0.0,0.0
29/05/2023,00:04:20,0.000,0.0,0.0,0.0
29/05/2023,00:05:20,0.000,0.0,0.0,0.0
29/05/2023,00:06:19,-0.000,0.0,0.0,0.0
29/05/2023,00:07:19,-0.001,0.0,0.0,0.0
29/05/2023,00:08:19,0.000,0.0,0.0,0.0
29/05/2023,00:09:20,0.000,0.0,0.0,0.0
29/05/2023,00:10:20,0.000,0.0,0.0,0.0
29/05/2023,00:11:20,0.000,0.0,0.0,0.0
29/05/2023,00:12:19,0.000,0.0,0.0,0.0
29/05/2023,00:13:19,0.001,0.0,0.0,0.0
29/05/2023,00:14:20,0.000,0.0,0.0,0.0
29/05/2023,00:15:19,0.000,0.0,0.0,0.0
29/05/2023,00:16:19,0.001,0.0,0.0,0.0
29/05/2023,00:17:20,-0.001,0.0,0.0,0.0
29/05/2023,00:18:20,0.000,0.0,0.0,0.0
29/05/2023,00:19:20,-0.001,0.0,0.0,0.0
29/05/2023,00:20:19,0.001,0.0,0.0,0.0
29/05/2023,00:21:20,0.001,0.0,0.0,0.0
29/05/2023,00:22:20,0.001,0.0,0.0,0.0
29/05/2023,00:23:19,0.001,0.0,0.0,0.0
29/05/2023,00:24:19,0.000,0.0,0.0,0.0
29/05/2023,00:25:19,0.000,0.0,0.0,0.0
29/05/2023,00:26:20,0.000,0.0,0.0,0.0
29/05/2023,00:27:20,0.000,0.0,0.0,0.0
29/05/2023,00:28:19,0.000,0.0,0.0,0.0
29/05/2023,00:29:20,0.000,0.0,0.0,0.0
29/05/2023,00:30:19,0.001,0.0,0.0,0.0
29/05/2023,00:31:20,-0.001,0.0,0.0,0.0
29/05/2023,00:32:19,0.001,0.0,0.0,0.0
29/05/2023,00:33:20,0.000,0.0,0.0,0.0
29/05/2023,00:34:20,0.001,0.0,0.0,0.0
29/05/2023,00:35:20,0.000,0.0,0.0,0.0
29/05/2023,00:36:19,0.001,0.0,0.0,0.0
29/05/2023,00:37:19,0.000,0.0,0.0,0.0
29/05/2023,00:38:19,0.001,0.0,0.0,0.0
29/05/2023,00:39:20,-0.001,0.0,0.0,0.0
29/05/2023,00:40:19,0.000,0.0,0.0,0.0
29/05/2023,00:41:20,-0.000,0.0,0.0,0.0
29/05/2023,00:42:20,0.001,0.0,0.0,0.0
29/05/2023,00:43:19,-0.000,0.0,0.0,0.0
29/05/2023,00:44:19,0.001,0.0,0.0,0.0
29/05/2023,00:45:20,0.000,0.0,0.0,0.0
29/05/2023,00:46:19,-0.000,0.0,0.0,0.0
29/05/2023,00:47:19,0.001,0.0,0.0,0.0
29/05/2023,00:48:20,0.001,0.0,0.0,0.0
29/05/2023,00:49:19,-0.000,0.0,0.0,0.0
29/05/2023,00:50:19,0.001,0.0,0.0,0.0
29/05/2023,00:51:19,0.002,0.0,0.0,0.0
29/05/2023,00:52:20,0.000,0.0,0.0,0.0
29/05/2023,00:53:20,0.001,0.0,0.0,0.0
29/05/2023,00:54:20,0.001,0.0,0.0,0.0
29/05/2023,00:55:19,0.002,0.0,0.0,0.0
29/05/2023,00:56:19,0.001,0.0,0.0,0.0
29/05/2023,00:57:19,0.001,0.0,0.0,0.0
29/05/2023,00:58:20,0.001,0.0,0.0,0.0
29/05/2023,00:59:20,0.001,0.0,0.0,0.0
29/05/2023,01:00:20,0.000,0.0,0.0,0.0
29/05/2023,01:01:19,0.001,0.0,0.0,0.0
29/05/2023,01:02:19,0.001,0.0,0.0,0.0
29/05/2023,01:03:19,0.000,0.0,0.0,0.0
29/05/2023,01:04:20,0.000,0.0,0.0,0.0
29/05/2023,01:05:19,-0.000,0.0,0.0,0.0
29/05/2023,01:06:19,0.002,0.0,0.0,0.0
29/05/2023,01:07:19,0.001,0.0,0.0,0.0
29/05/2023,01:08:20,-0.000,0.0,0.0,0.0
29/05/2023,01:09:19,0.001,0.0,0.0,0.0
29/05/2023,01:10:20,0.001,0.0,0.0,0.0
29/05/2023,01:11:20,0.001,0.0,0.0,0.0
29/05/2023,01:12:20,0.001,0.0,0.0,0.0
29/05/2023,01:13:20,-0.000,0.0,0.0,0.0
29/05/2023,01:14:19,0.001,0.0,0.0,0.0
29/05/2023,01:15:20,0.001,0.0,0.0,0.0
29/05/2023,01:16:19,0.001,0.0,0.0,0.0
29/05/2023,01:17:19,0.001,0.0,0.0,0.0
29/05/2023,01:18:20,0.001,0.0,0.0,0.0
29/05/2023,01:19:19,0.002,0.0,0.0,0.0
29/05/2023,01:20:19,0.001,0.0,0.0,0.0
29/05/2023,01:21:20,0.001,0.0,0.0,0.0
29/05/2023,01:22:19,0.001,0.0,0.0,0.0
29/05/2023,01:23:20,0.001,0.0,0.0,0.0
29/05/2023,01:24:20,0.000,0.0,0.0,0.0
29/05/2023,01:25:20,0.001,0.0,0.0,0.0
29/05/2023,01:26:20,-0.000,0.0,0.0,0.0
29/05/2023,01:27:20,0.002,0.0,0.0,0.0
29/05/2023,01:28:20,0.001,0.0,0.0,0.0
29/05/2023,01:29:19,0.001,0.0,0.0,0.0
29/05/2023,01:30:20,0.001,0.0,0.0,0.0
29/05/2023,01:31:20,0.001,0.0,0.0,0.0
29/05/2023,01:32:19,0.001,0.0,0.0,0.0
29/05/2023,01:33:20,0.001,0.0,0.0,0.0
29/05/2023,01:34:20,0.001,0.0,0.0,0.0
29/05/2023,01:35:19,0.001,0.0,0.0,0.0
29/05/2023,01:36:19,-0.000,0.0,0.0,0.0
29/05/2023,01:37:19,0.002,0.0,0.0,0.0
29/05/2023,01:38:19,0.002,0.0,0.0,0.0
29/05/2023,01:39:20,0.002,0.0,0.0,0.0
29/05/2023,01:40:20,0.000,0.0,0.0,0.0
29/05/2023,01:41:20,0.001,0.0,0.0,0.0
29/05/2023,01:42:20,0.001,0.0,0.0,0.0
29/05/2023,01:43:19,0.001,0.0,0.0,0.0
29/05/2023,01:44:19,0.000,0.0,0.0,0.0
29/05/2023,01:45:19,0.001,0.0,0.0,0.0
29/05/2023,01:46:20,0.001,0.0,0.0,0.0
29/05/2023,01:47:20,0.002,0.0,0.0,0.0
29/05/2023,01:48:19,0.001,0.0,0.0,0.0
29/05/2023,01:49:20,0.000,0.0,0.0,0.0
29/05/2023,01:50:19,0.001,0.0,0.0,0.0
29/05/2023,01:51:19,0.001,0.0,0.0,0.0
29/05/2023,01:52:19,0.002,0.0,0.0,0.0
29/05/2023,01:53:19,0.001,0.0,0.0,0.0
29/05/2023,01:54:19,0.001,0.0,0.0,0.0
29/05/2023,01:55:19,0.001,0.0,0.0,0.0
29/05/2023,01:56:19,0.001,0.0,0.0,0.0
29/05/2023,01:57:19,0.001,0.0,0.0,0.0
29/05/2023,01:58:20,0.002,0.0,0.0,0.0
29/05/2023,01:59:20,0.001,0.0,0.0,0.0
29/05/2023,02:00:19,0.001,0.0,0.0,0.0
29/05/2023,02:01:20,0.001,0.0,0.0,0.0
29/05/2023,02:02:19,0.001,0.0,0.0,0.0
29/05/2023,02:03:20,0.000,0.0,0.0,0.0
29/05/2023,02:04:20,0.001,0.0,0.0,0.0
29/05/2023,02:05:20,0.001,0.0,0.0,0.0
29/05/2023,02:06:20,0.001,0.0,0.0,0.0
29/05/2023,02:07:20,0.001,0.0,0.0,0.0
29/05/2023,02:08:19,0.001,0.0,0.0,0.0
29/05/2023,02:09:20,0.001,0.0,0.0,0.0
29/05/2023,02:10:20,0.000,0.0,0.0,0.0
29/05/2023,02:11:19,0.002,0.0,0.0,0.0
29/05/2023,02:12:20,0.001,0.0,0.0,0.0
29/05/2023,02:13:20,0.001,0.0,0.0,0.0
29/05/2023,02:14:20,0.002,0.0,0.0,0.0
29/05/2023,02:15:19,0.001,0.0,0.0,0.0
29/05/2023,02:16:20,0.001,0.0,0.0,0.0
29/05/2023,02:17:20,0.001,0.0,0.0,0.0
29/05/2023,02:18:20,0.001,0.0,0.0,0.0
29/05/2023,02:19:19,0.002,0.0,0.0,0.0
29/05/2023,02:20:19,0.001,0.0,0.0,0.0
29/05/2023,02:21:19,0.001,0.0,0.0,0.0
29/05/2023,02:22:19,0.001,0.0,0.0,0.0
29/05/2023,02:23:20,0.001,0.0,0.0,0.0
29/05/2023,02:24:20,0.001,0.0,0.0,0.0
29/05/2023,02:25:20,0.001,0.0,0.0,0.0
29/05/2023,02:26:20,0.001,0.0,0.0,0.0
29/05/2023,02:27:19,0.001,0.0,0.0,0.0
29/05/2023,02:28:19,0.001,0.0,0.0,0.0
29/05/2023,02:29:19,0.001,0.0,0.0,0.0
29/05/2023,02:30:20,0.001,0.0,0.0,0.0
29/05/2023,02:31:19,0.001,0.0,0.0,0.0
29/05/2023,02:32:20,0.001,0.0,0.0,0.0
29/05/2023,02:33:20,0.001,0.0,0.0,0.0
29/05/2023,02:34:19,0.002,0.0,0.0,0.0
29/05/2023,02:35:19,0.001,0.0,0.0,0.0
29/05/2023,02:36:20,0.001,0.0,0.0,0.0
29/05/2023,02:37:20,0.001,0.0,0.0,0.0
29/05/2023,02:38:19,0.002,0.0,0.0,0.0
29/05/2023,02:39:19,0.000,0.0,0.0,0.0
29/05/2023,02:40:49,0.001,0.0,0.0,0.0
29/05/2023,02:42:20,0.001,0.0,0.0,0.0
29/05/2023,02:43:20,0.001,0.0,0.0,0.0
29/05/2023,02:44:20,0.001,0.0,0.0,0.0
29/05/2023,02:45:20,0.001,0.0,0.0,0.0
29/05/2023,02:46:20,0.001,0.0,0.0,0.0
29/05/2023,02:47:20,0.001,0.0,0.0,0.0
29/05/2023,02:48:19,0.001,0.0,0.0,0.0
29/05/2023,02:49:19,0.002,0.0,0.0,0.0
29/05/2023,02:50:20,0.001,0.0,0.0,0.0
29/05/2023,02:51:20,0.001,0.0,0.0,0.0
29/05/2023,02:52:19,0.001,0.0,0.0,0.0
29/05/2023,02:53:20,0.001,0.0,0.0,0.0
29/05/2023,02:54:19,0.001,0.0,0.0,0.0
29/05/2023,02:55:20,0.002,0.0,0.0,0.0
29/05/2023,02:56:20,0.001,0.0,0.0,0.0
29/05/2023,02:57:20,0.001,0.0,0.0,0.0
29/05/2023,02:58:20,0.001,0.0,0.0,0.0
29/05/2023,02:59:20,0.001,0.0,0.0,0.0
29/05/2023,03:00:19,0.000,0.0,0.0,0.0
29/05/2023,03:01:20,0.001,0.0,0.0,0.0
29/05/2023,03:02:19,0.001,0.0,0.0,0.0
29/05/2023,03:03:19,0.001,0.0,0.0,0.0
29/05/2023,03:04:20,0.001,0.0,0.0,0.0
29/05/2023,03:05:20,0.001,0.0,0.0,0.0
29/05/2023,03:06:20,0.002,0.0,0.0,0.0
29/05/2023,03:07:20,0.002,0.0,0.0,0.0
29/05/2023,03:08:19,0.002,0.0,0.0,0.0
29/05/2023,03:09:20,0.002,0.0,0.0,0.0
29/05/2023,03:10:19,0.001,0.0,0.0,0.0
29/05/2023,03:11:20,0.001,0.0,0.0,0.0
29/05/2023,03:12:20,0.002,0.0,0.0,0.0
29/05/2023,03:13:20,0.001,0.0,0.0,0.0
29/05/2023,03:14:19,0.001,0.0,0.0,0.0
29/05/2023,03:15:20,0.001,0.0,0.0,0.0
29/05/2023,03:16:20,0.002,0.0,0.0,0.0
29/05/2023,03:17:20,0.001,0.0,0.0,0.0
29/05/2023,03:18:19,0.001,0.0,0.0,0.0
29/05/2023,03:19:19,0.002,0.0,0.0,0.0
29/05/2023,03:20:20,0.001,0.0,0.0,0.0
29/05/2023,03:21:20,0.001,0.0,0.0,0.0
29/05/2023,03:22:20,0.001,0.0,0.0,0.0
29/05/2023,03:23:20,0.002,0.0,0.0,0.0
29/05/2023,03:24:19,0.002,0.0,0.0,0.0
29/05/2023,03:25:19,0.002,0.0,0.0,0.0
29/05/2023,03:26:20,0.002,0.0,0.0,0.0
29/05/2023,03:27:20,0.002,0.0,0.0,0.0
29/05/2023,03:28:19,0.002,0.0,0.0,0.0
29/05/2023,03:29:19,0.002,0.0,0.0,0.0
29/05/2023,03:30:20,0.002,0.0,0.0,0.0
29/05/2023,03:31:19,0.002,0.0,0.0,0.0
29/05/2023,03:32:20,0.002,0.0,0.0,0.0
29/05/2023,03:33:20,0.002,0.0,0.0,0.0
29/05/2023,03:34:19,0.002,0.0,0.0,0.0
29/05/2023,03:35:19,0.002,0.0,0.0,0.0
29/05/2023,03:36:19,0.002,0.0,0.0,0.0
29/05/2023,03:37:20,0.003,0.0,0.0,0.0
29/05/2023,03:38:20,0.002,0.0,0.0,0.0
29/05/2023,03:39:20,0.002,0.0,0.0,0.0
29/05/2023,03:40:19,0.002,0.0,0.0,0.0
29/05/2023,03:41:19,0.002,0.0,0.0,0.0
29/05/2023,03:42:20,0.002,0.0,0.0,0.0
29/05/2023,03:43:20,0.002,0.0,0.0,0.0
29/05/2023,03:44:20,0.002,0.0,0.0,0.0
29/05/2023,03:45:20,0.002,0.0,0.0,0.0
29/05/2023,03:46:20,0.004,0.0,0.0,0.0
29/05/2023,03:47:19,0.002,0.0,0.0,0.0
29/05/2023,03:48:20,0.002,0.0,0.0,0.0
29/05/2023,03:49:20,0.002,0.0,0.0,0.0
29/05/2023,03:50:20,0.003,0.0,0.0,0.0
29/05/2023,03:51:19,0.003,0.0,0.0,0.0
29/05/2023,03:52:20,0.003,0.0,0.0,0.0
29/05/2023,03:53:19,0.003,0.0,0.0,0.0
29/05/2023,03:54:20,0.002,0.0,0.0,0.0
29/05/2023,03:55:20,0.003,0.0,0.0,0.0
29/05/2023,03:56:20,0.004,0.0,0.0,0.0
29/05/2023,03:57:20,0.004,0.0,0.0,0.0
29/05/2023,03:58:20,0.003,0.0,0.0,0.0
29/05/2023,03:59:19,0.005,0.0,0.0,0.0
29/05/2023,04:00:20,0.004,0.0,0.0,0.0
29/05/2023,04:01:19,0.004,0.0,0.0,0.0
29/05/2023,04:02:20,0.004,0.0,0.0,0.0
29/05/2023,04:03:20,0.005,0.0,0.0,0.0
29/05/2023,04:04:19,0.005,0.0,0.0,0.0
29/05/2023,04:05:19,0.005,0.0,0.0,0.0
29/05/2023,04:06:20,0.004,0.0,0.0,0.0
29/05/2023,04:07:19,0.005,0.0,0.0,0.0
29/05/2023,04:08:20,0.006,0.0,0.0,0.0
29/05/2023,04:09:20,0.006,0.0,0.0,0.0
29/05/2023,04:10:20,0.006,0.0,0.0,0.0
29/05/2023,04:11:19,0.006,0.0,0.0,0.0
29/05/2023,04:12:20,0.007,0.0,0.0,0.0
29/05/2023,04:13:20,0.007,0.0,0.0,0.0
29/05/2023,04:14:20,0.007,0.0,0.0,0.0
29/05/2023,04:15:20,0.006,0.0,0.0,0.0
29/05/2023,04:16:20,0.007,0.0,0.001,0.001
29/05/2023,04:17:20,0.007,0.0,0.001,0.0
29/05/2023,04:18:20,0.008,0.0,0.001,0.0
29/05/2023,04:19:20,0.008,0.0,0.001,0.0
29/05/2023,04:20:20,0.009,0.0,0.001,0.0
29/05/2023,04:21:19,0.008,0.0,0.001,0.0
29/05/2023,04:22:20,0.009,0.0,0.001,0.0
29/05/2023,04:23:20,0.010,0.0,0.002,0.001
29/05/2023,04:24:20,0.010,0.0,0.002,0.0
29/05/2023,04:25:20,0.010,0.0,0.002,0.0
29/05/2023,04:26:20,0.011,0.0,0.002,0.0
29/05/2023,04:27:20,0.011,0.0,0.002,0.0
29/05/2023,04:28:20,0.010,0.0,0.002,0.0
29/05/2023,04:29:20,0.011,0.0,0.003,0.001
29/05/2023,04:30:19,0.013,0.0,0.003,0.0
29/05/2023,04:31:20,0.013,0.0,0.003,0.0
29/05/2023,04:32:20,0.013,0.0,0.003,0.0
29/05/2023,04:33:20,0.014,0.0,0.003,0.0
29/05/2023,04:34:20,0.014,0.0,0.004,0.001
29/05/2023,04:35:19,0.014,0.0,0.004,0.0
29/05/2023,04:36:19,0.015,0.0,0.004,0.0
29/05/2023,04:37:20,0.015,0.0,0.004,0.0
29/05/2023,04:38:20,0.016,0.0,0.005,0.001
29/05/2023,04:39:19,0.016,0.0,0.005,0.0
29/05/2023,04:40:19,0.017,0.0,0.005,0.0
29/05/2023,04:41:19,0.016,0.0,0.006,0.001
29/05/2023,04:42:20,0.018,0.0,0.006,0.0
29/05/2023,04:43:20,0.018,0.0,0.006,0.0
29/05/2023,04:44:20,0.019,0.0,0.006,0.0
29/05/2023,04:45:20,0.021,0.0,0.007,0.001
29/05/2023,04:46:20,0.020,0.0,0.007,0.0
29/05/2023,04:47:20,0.021,0.0,0.007,0.0
29/05/2023,04:48:20,0.021,0.0,0.008,0.001
29/05/2023,04:49:19,0.022,0.0,0.008,0.0
29/05/2023,04:50:20,0.023,0.0,0.008,0.0
29/05/2023,04:51:19,0.023,0.0,0.009,0.001
29/05/2023,04:52:20,0.024,0.0,0.009,0.0
29/05/2023,04:53:20,0.025,0.0,0.01,0.001
29/05/2023,04:54:20,0.025,0.0,0.01,0.0
29/05/2023,04:55:19,0.027,0.0,0.011,0.001
29/05/2023,04:56:20,0.027,0.0,0.011,0.0
29/05/2023,04:57:20,0.028,0.0,0.011,0.0
29/05/2023,04:58:20,0.029,0.0,0.012,0.001
29/05/2023,04:59:20,0.028,0.0,0.012,0.0
29/05/2023,05:00:20,0.031,0.0,0.013,0.001
29/05/2023,05:01:20,0.031,0.0,0.013,0.0
29/05/2023,05:02:19,0.031,0.0,0.014,0.001
29/05/2023,05:03:20,0.032,0.0,0.014,0.0
29/05/2023,05:04:20,0.033,0.0,0.015,0.001
29/05/2023,05:05:20,0.034,0.0,0.016,0.001
29/05/2023,05:06:19,0.035,0.0,0.016,0.0
29/05/2023,05:07:20,0.037,0.0,0.017,0.001
29/05/2023,05:08:20,0.036,0.0,0.017,0.0
29/05/2023,05:09:20,0.038,0.0,0.018,0.001
29/05/2023,05:10:21,0.039,0.0,0.019,0.001
29/05/2023,05:11:20,0.040,0.0,0.019,0.0
29/05/2023,05:12:20,0.041,0.0,0.02,0.001
29/05/2023,05:13:20,0.043,0.0,0.021,0.001
29/05/2023,05:14:20,0.044,0.0,0.021,0.0
29/05/2023,05:15:20,0.045,0.0,0.022,0.001
29/05/2023,05:16:20,0.046,0.0,0.023,0.001
29/05/2023,05:17:19,0.047,0.0,0.024,0.001
29/05/2023,05:18:20,0.048,0.0,0.024,0.0
29/05/2023,05:19:20,0.049,0.0,0.025,0.001
29/05/2023,05:20:20,0.050,0.0,0.026,0.001
29/05/2023,05:21:19,0.053,0.0,0.027,0.001
29/05/2023,05:22:19,0.053,0.0,0.028,0.001
29/05/2023,05:23:20,0.054,0.0,0.029,0.001
29/05/2023,05:24:20,0.056,0.0,0.03,0.001
29/05/2023,05:25:20,0.056,0.0,0.03,0.0
29/05/2023,05:26:20,0.057,0.0,0.031,0.001
29/05/2023,05:27:19,0.060,0.0,0.032,0.001
29/05/2023,05:28:42,0.061,0.0,0.034,0.002
29/05/2023,05:30:21,0.063,0.0,0.036,0.002
29/05/2023,05:31:20,0.065,0.0,0.037,0.001
29/05/2023,05:32:20,0.067,0.0,0.038,0.001
29/05/2023,05:33:20,0.069,0.0,0.039,0.001
29/05/2023,05:34:20,0.070,0.0,0.04,0.001
29/05/2023,05:35:20,0.071,0.0,0.041,0.001
29/05/2023,05:36:20,0.073,0.0,0.042,0.001
29/05/2023,05:37:19,0.075,0.0,0.044,0.002
29/05/2023,05:38:20,0.077,0.0,0.045,0.001
29/05/2023,05:39:21,0.079,0.0,0.046,0.001
29/05/2023,05:40:21,0.080,0.0,0.047,0.001
29/05/2023,05:41:20,0.082,0.0,0.049,0.002
29/05/2023,05:42:20,0.084,0.0,0.05,0.001
29/05/2023,05:43:20,0.084,0.0,0.052,0.002
29/05/2023,05:44:20,0.085,0.0,0.053,0.001
29/05/2023,05:45:22,0.088,0.0,0.055,0.002
29/05/2023,05:46:19,0.088,0.0,0.056,0.001
29/05/2023,05:47:20,0.092,0.0,0.057,0.001
29/05/2023,05:48:20,0.094,0.0,0.059,0.002
29/05/2023,05:49:21,0.098,0.0,0.061,0.002
29/05/2023,05:50:20,0.100,0.0,0.062,0.001
29/05/2023,05:51:20,0.103,0.0,0.064,0.002
29/05/2023,05:52:19,0.105,0.0,0.066,0.002
29/05/2023,05:53:20,0.107,0.0,0.067,0.001
29/05/2023,05:54:49,0.111,0.0,0.07,0.003
29/05/2023,05:56:20,0.115,0.0,0.073,0.003
29/05/2023,05:57:20,0.117,0.0,0.075,0.002
29/05/2023,05:58:20,0.120,0.0,0.077,0.002
29/05/2023,05:59:20,0.122,0.0,0.079,0.002
29/05/2023,06:00:20,0.124,0.0,0.081,0.002
29/05/2023,06:01:20,0.127,0.0,0.083,0.002
29/05/2023,06:02:20,0.131,0.0,0.085,0.002
29/05/2023,06:03:20,0.132,0.0,0.087,0.002
29/05/2023,06:04:20,0.135,0.0,0.09,0.003
29/05/2023,06:05:20,0.139,0.0,0.092,0.002
29/05/2023,06:06:20,0.140,0.0,0.094,0.002
29/05/2023,06:07:20,0.143,0.0,0.097,0.003
29/05/2023,06:08:20,0.146,0.0,0.099,0.002
29/05/2023,06:09:20,0.150,0.0,0.101,0.002
29/05/2023,06:10:20,0.153,0.0,0.104,0.003
29/05/2023,06:11:20,0.156,0.0,0.106,0.002
29/05/2023,06:12:20,0.158,0.0,0.109,0.003
29/05/2023,06:13:20,0.162,0.0,0.112,0.003
29/05/2023,06:14:20,0.165,0.0,0.114,0.002
29/05/2023,06:15:20,0.167,0.0,0.117,0.003
29/05/2023,06:16:20,0.171,0.0,0.12,0.003
29/05/2023,06:17:20,0.174,0.0,0.123,0.003
29/05/2023,06:18:20,0.178,0.0,0.126,0.003
29/05/2023,06:19:20,0.181,0.0,0.129,0.003
29/05/2023,06:20:20,0.183,0.0,0.132,0.003
29/05/2023,06:21:20,0.182,0.0,0.135,0.003
29/05/2023,06:22:20,0.191,0.0,0.138,0.003
29/05/2023,06:23:20,0.186,0.0,0.141,0.003
29/05/2023,06:24:20,0.192,0.0,0.144,0.003
29/05/2023,06:25:20,0.187,0.0,0.147,0.003
29/05/2023,06:26:20,0.187,0.0,0.151,0.004
29/05/2023,06:27:20,0.201,0.0,0.154,0.003
29/05/2023,06:28:20,0.197,0.0,0.157,0.003
29/05/2023,06:29:20,0.193,0.0,0.16,0.003
29/05/2023,06:30:20,0.213,0.0,0.164,0.004
29/05/2023,06:31:20,0.195,0.0,0.167,0.003
29/05/2023,06:32:20,0.207,0.0,0.17,0.003
29/05/2023,06:33:20,0.207,0.0,0.174,0.004
29/05/2023,06:34:20,0.231,1.0,0.177,0.003
29/05/2023,06:35:20,0.206,0.0,0.181,0.004
29/05/2023,06:36:20,0.211,0.0,0.184,0.003
29/05/2023,06:37:20,0.248,1.0,0.188,0.004
29/05/2023,06:38:20,0.227,1.0,0.192,0.004
29/05/2023,06:39:20,0.229,1.0,0.196,0.004
29/05/2023,06:40:20,0.255,1.0,0.2,0.004
29/05/2023,06:41:20,0.227,1.0,0.204,0.004
29/05/2023,06:42:19,0.251,1.0,0.208,0.004
29/05/2023,06:43:42,0.230,1.0,0.214,0.006
29/05/2023,06:45:21,0.267,1.0,0.22,0.006
29/05/2023,06:46:20,0.248,1.0,0.225,0.005
29/05/2023,06:47:20,0.263,1.0,0.229,0.004
29/05/2023,06:48:21,0.255,1.0,0.233,0.004
29/05/2023,06:49:20,0.267,1.0,0.238,0.005
29/05/2023,06:50:20,0.280,1.0,0.242,0.004
29/05/2023,06:51:21,0.274,1.0,0.247,0.005
29/05/2023,06:52:20,0.279,1.0,0.251,0.004
29/05/2023,06:53:20,0.294,1.0,0.256,0.005
29/05/2023,06:54:20,0.287,1.0,0.261,0.005
29/05/2023,06:55:20,0.287,1.0,0.266,0.005
29/05/2023,06:56:20,0.338,1.0,0.271,0.005
29/05/2023,06:57:20,0.343,1.0,0.277,0.006
29/05/2023,06:58:20,0.345,1.0,0.283,0.006
29/05/2023,06:59:19,0.349,1.0,0.288,0.005
29/05/2023,07:00:20,0.355,1.0,0.294,0.006
29/05/2023,07:01:22,0.360,1.0,0.3,0.006
29/05/2023,07:02:20,0.367,1.0,0.306,0.006
29/05/2023,07:03:20,0.374,1.0,0.312,0.006
29/05/2023,07:04:19,0.377,1.0,0.319,0.007
29/05/2023,07:05:20,0.383,1.0,0.325,0.006
29/05/2023,07:06:20,0.389,1.0,0.331,0.006
29/05/2023,07:07:20,0.394,1.0,0.338,0.007
29/05/2023,07:08:20,0.400,1.0,0.345,0.007
29/05/2023,07:09:20,0.404,1.0,0.351,0.006
29/05/2023,07:10:21,0.410,1.0,0.358,0.007
29/05/2023,07:11:20,0.417,1.0,0.365,0.007
29/05/2023,07:12:20,0.418,1.0,0.372,0.007
29/05/2023,07:13:20,0.429,1.0,0.379,0.007
29/05/2023,07:14:20,0.434,1.0,0.386,0.007
29/05/2023,07:15:20,0.440,1.0,0.393,0.007
29/05/2023,07:16:20,0.424,1.0,0.401,0.008
29/05/2023,07:17:20,0.433,1.0,0.408,0.007
29/05/2023,07:18:21,0.451,1.0,0.415,0.007
29/05/2023,07:19:20,0.414,1.0,0.423,0.008
29/05/2023,07:20:20,0.376,1.0,0.43,0.007
29/05/2023,07:21:21,0.388,1.0,0.436,0.006
29/05/2023,07:22:20,0.395,1.0,0.443,0.007
29/05/2023,07:23:20,0.411,1.0,0.45,0.007
29/05/2023,07:24:20,0.409,1.0,0.457,0.007
29/05/2023,07:25:20,0.358,1.0,0.463,0.006
29/05/2023,07:26:20,0.364,1.0,0.469,0.006
29/05/2023,07:27:20,0.329,1.0,0.475,0.006
29/05/2023,07:28:20,0.343,1.0,0.48,0.005
29/05/2023,07:29:20,0.363,1.0,0.486,0.006
29/05/2023,07:30:20,0.356,1.0,0.492,0.006
29/05/2023,07:31:20,0.372,1.0,0.499,0.007
29/05/2023,07:32:20,0.381,1.0,0.505,0.006
29/05/2023,07:33:21,0.372,1.0,0.511,0.006
29/05/2023,07:34:21,0.368,1.0,0.517,0.006
29/05/2023,07:35:20,0.369,1.0,0.523,0.006
29/05/2023,07:36:20,0.535,1.0,0.531,0.008
29/05/2023,07:37:21,0.566,1.0,0.54,0.009
29/05/2023,07:38:20,0.477,1.0,0.549,0.009
29/05/2023,07:39:20,0.423,1.0,0.556,0.007
29/05/2023,07:40:21,0.423,1.0,0.563,0.007
29/05/2023,07:41:20,0.451,1.0,0.571,0.008
29/05/2023,07:42:20,0.525,1.0,0.579,0.008
29/05/2023,07:43:20,0.550,1.0,0.589,0.01
29/05/2023,07:44:20,0.472,1.0,0.597,0.008
29/05/2023,07:45:20,0.504,1.0,0.605,0.008
29/05/2023,07:46:20,0.519,1.0,0.615,0.01
29/05/2023,07:47:21,0.630,1.0,0.624,0.009
29/05/2023,07:48:20,0.537,1.0,0.634,0.01
29/05/2023,07:49:20,0.497,1.0,0.643,0.009
29/05/2023,07:50:21,0.483,1.0,0.651,0.008
29/05/2023,07:51:21,0.499,1.0,0.66,0.009
29/05/2023,07:52:20,0.532,1.0,0.668,0.008
29/05/2023,07:53:20,0.530,1.0,0.678,0.01
29/05/2023,07:54:20,0.515,1.0,0.687,0.009
29/05/2023,07:55:20,0.496,1.0,0.696,0.009
29/05/2023,07:56:20,0.500,1.0,0.704,0.008
29/05/2023,07:57:20,0.509,1.0,0.713,0.009
29/05/2023,07:58:20,0.567,1.0,0.721,0.008
29/05/2023,07:59:20,0.594,1.0,0.732,0.011
29/05/2023,08:00:20,0.543,1.0,0.741,0.009
29/05/2023,08:01:20,0.516,1.0,0.75,0.009
29/05/2023,08:02:20,0.511,1.0,0.758,0.008
29/05/2023,08:03:20,0.508,1.0,0.767,0.009
29/05/2023,08:04:20,0.528,1.0,0.775,0.008
29/05/2023,08:05:20,0.540,1.0,0.784,0.009
29/05/2023,08:06:20,0.545,1.0,0.793,0.009
29/05/2023,08:07:20,0.632,1.0,0.803,0.01
29/05/2023,08:08:21,0.778,2.0,0.814,0.011
29/05/2023,08:09:20,0.702,2.0,0.825,0.011
29/05/2023,08:10:21,0.725,2.0,0.837,0.012
29/05/2023,08:11:21,0.523,1.0,0.846,0.009
29/05/2023,08:12:21,0.523,1.0,0.855,0.009
29/05/2023,08:13:20,0.537,1.0,0.865,0.01
29/05/2023,08:14:20,0.531,1.0,0.874,0.009
29/05/2023,08:15:20,0.572,1.0,0.884,0.01
29/05/2023,08:16:20,0.580,1.0,0.894,0.01
29/05/2023,08:17:20,0.630,1.0,0.904,0.01
29/05/2023,08:18:20,0.795,2.0,0.918,0.014
29/05/2023,08:19:20,0.938,2.0,0.931,0.013
29/05/2023,08:20:20,0.930,2.0,0.945,0.014
29/05/2023,08:21:20,0.646,1.0,0.958,0.013
29/05/2023,08:22:20,0.617,1.0,0.968,0.01
29/05/2023,08:23:20,0.618,1.0,0.979,0.011
29/05/2023,08:24:20,0.699,2.0,0.989,0.01
29/05/2023,08:25:20,0.741,2.0,1.001,0.012
29/05/2023,08:26:21,0.679,2.0,1.013,0.012
29/05/2023,08:27:21,0.631,1.0,1.024,0.011
29/05/2023,08:28:21,0.597,1.0,1.034,0.01
29/05/2023,08:29:20,0.589,1.0,1.044,0.01
29/05/2023,08:30:21,0.598,1.0,1.054,0.01
29/05/2023,08:31:20,0.630,1.0,1.064,0.01
29/05/2023,08:32:20,0.674,2.0,1.076,0.012
29/05/2023,08:33:21,0.678,2.0,1.087,0.011
29/05/2023,08:34:21,0.943,2.0,1.1,0.013
29/05/2023,08:35:20,0.703,2.0,1.112,0.012
29/05/2023,08:36:20,0.688,2.0,1.123,0.011
29/05/2023,08:37:20,0.705,2.0,1.135,0.012
29/05/2023,08:38:21,0.699,2.0,1.147,0.012
29/05/2023,08:39:20,0.665,2.0,1.159,0.012
29/05/2023,08:40:22,0.675,2.0,1.17,0.011
29/05/2023,08:41:20,0.692,2.0,1.181,0.011
29/05/2023,08:42:20,0.697,2.0,1.193,0.012
29/05/2023,08:43:20,0.676,2.0,1.204,0.011
29/05/2023,08:44:20,0.689,2.0,1.216,0.012
29/05/2023,08:45:20,0.714,2.0,1.228,0.012
29/05/2023,08:46:20,0.735,2.0,1.24,0.012
29/05/2023,08:47:21,0.742,2.0,1.252,0.012
29/05/2023,08:48:21,0.698,2.0,1.264,0.012
29/05/2023,08:49:20,0.861,2.0,1.276,0.012
29/05/2023,08:50:20,0.741,2.0,1.288,0.012
29/05/2023,08:51:20,0.691,2.0,1.3,0.012
29/05/2023,08:52:20,0.699,2.0,1.312,0.012
29/05/2023,08:53:20,0.732,2.0,1.324,0.012
29/05/2023,08:54:21,0.729,2.0,1.336,0.012
29/05/2023,08:55:20,0.721,2.0,1.348,0.012
29/05/2023,08:56:21,0.653,2.0,1.36,0.012
29/05/2023,08:57:20,0.657,2.0,1.371,0.011
29/05/2023,08:58:20,0.666,2.0,1.382,0.011
29/05/2023,08:59:21,0.666,2.0,1.393,0.011
29/05/2023,09:00:20,0.677,2.0,1.404,0.011
29/05/2023,09:01:21,0.719,2.0,1.415,0.011
29/05/2023,09:02:20,0.758,2.0,1.428,0.013
29/05/2023,09:03:20,0.758,2.0,1.441,0.013
29/05/2023,09:04:21,0.717,2.0,1.453,0.012
29/05/2023,09:05:20,0.703,2.0,1.465,0.012
29/05/2023,09:06:20,0.688,2.0,1.476,0.011
29/05/2023,09:07:20,0.646,1.0,1.488,0.012
29/05/2023,09:08:21,0.619,1.0,1.498,0.01
29/05/2023,09:09:21,0.625,1.0,1.508,0.01
29/05/2023,09:10:20,0.638,1.0,1.519,0.011
29/05/2023,09:11:20,0.653,2.0,1.53,0.011
29/05/2023,09:12:21,0.655,2.0,1.541,0.011
29/05/2023,09:13:21,0.639,1.0,1.551,0.01
29/05/2023,09:14:20,0.649,1.0,1.562,0.011
29/05/2023,09:15:24,0.667,2.0,1.574,0.012
29/05/2023,09:16:21,0.667,2.0,1.584,0.01
29/05/2023,09:17:20,0.647,1.0,1.595,0.011
29/05/2023,09:18:20,0.630,1.0,1.606,0.011
29/05/2023,09:19:21,0.614,1.0,1.616,0.01
29/05/2023,09:20:20,0.598,1.0,1.626,0.01
29/05/2023,09:21:20,0.599,1.0,1.636,0.01
29/05/2023,09:22:20,0.604,1.0,1.646,0.01
29/05/2023,09:23:21,0.637,1.0,1.657,0.011
29/05/2023,09:24:21,0.669,2.0,1.668,0.011
29/05/2023,09:25:20,0.714,2.0,1.679,0.011
29/05/2023,09:26:20,0.774,2.0,1.693,0.014
29/05/2023,09:27:20,0.841,2.0,1.71,0.017
29/05/2023,09:28:20,0.785,2.0,1.724,0.014
29/05/2023,09:29:21,0.742,2.0,1.736,0.012
29/05/2023,09:30:21,0.772,2.0,1.749,0.013
29/05/2023,09:31:21,1.004,2.0,1.763,0.014
29/05/2023,09:32:21,1.058,2.0,1.779,0.016
29/05/2023,09:33:20,0.996,2.0,1.797,0.018
29/05/2023,09:34:20,0.910,2.0,1.812,0.015
29/05/2023,09:35:20,0.873,2.0,1.827,0.015
29/05/2023,09:36:20,0.877,2.0,1.842,0.015
29/05/2023,09:37:21,0.861,2.0,1.856,0.014
29/05/2023,09:38:20,0.843,2.0,1.87,0.014
29/05/2023,09:39:20,0.825,2.0,1.884,0.014
29/05/2023,09:40:21,0.812,2.0,1.898,0.014
29/05/2023,09:41:20,0.814,2.0,1.911,0.013
29/05/2023,09:42:21,0.851,2.0,1.925,0.014
29/05/2023,09:43:21,0.877,2.0,1.94,0.015
29/05/2023,09:44:20,0.883,2.0,1.954,0.014
29/05/2023,09:45:21,0.917,2.0,1.969,0.015
29/05/2023,09:46:20,0.923,2.0,1.985,0.016
29/05/2023,09:47:20,0.924,2.0,2.0,0.015
29/05/2023,09:48:20,0.894,2.0,2.015,0.015
29/05/2023,09:49:20,0.885,2.0,2.03,0.015
29/05/2023,09:50:21,0.877,2.0,2.045,0.015
29/05/2023,09:51:21,0.825,2.0,2.059,0.014
29/05/2023,09:52:20,0.818,2.0,2.073,0.014
29/05/2023,09:53:20,0.799,2.0,2.086,0.013
29/05/2023,09:54:22,0.790,2.0,2.1,0.014
29/05/2023,09:55:20,0.795,2.0,2.112,0.012
29/05/2023,09:56:20,0.798,2.0,2.126,0.014
29/05/2023,09:57:20,0.819,2.0,2.139,0.013
29/05/2023,09:58:20,0.859,2.0,2.153,0.014
29/05/2023,09:59:20,0.957,2.0,2.168,0.015
29/05/2023,10:00:21,1.300,3.0,2.187,0.019
29/05/2023,10:01:20,1.110,3.0,2.21,0.023